Location: PSU-Greenbush Astrophysical Observatory
(37.5140°N, 94.9880°W)
Time: 21:19:31
(UTC-06:00)

Altair - Pass Details

Date: 28 January 2020
Orbit: 1502 x 1682 km, 47.2° (Epoch: 16 February)

Event Time Altitude Azimuth Distance (km) Brightness Sun altitude
Rises 10:30:31 0° 277° (W) 4,900 9.8 27.3°
Reaches altitude 10° 10:33:51 10° 283° (WNW) 3,927 9.3 27.6°
Maximum altitude 10:43:35 49° 356° (N) 2,079 8.2 28.6°
Drops below altitude 10° 10:53:20 10° 70° (ENE) 3,927 9.8 29.6°
Sets 10:56:40 0° 76° (ENE) 4,901 10.3 29.9°
